Theta_e
324 318 311 311 301 298 293 295 299 300 302 308 313 315 314 316 312 305 326 329 332 334 343 344 346 348 347 347 348 348 347 348 346 345 344 342 344 340 338 338 337 338 337 337 339 339 340 339 338
319 318 312 306 298 291 292 297 301 304 308 313 315 315 315 312 321 326 327 331 338 341 342 342 343 346 347 348 348 348 347 347 345 343 344 343 343 341 338 337 339 337 337 338 339 339 339 337 338
317 314 306 300 296 290 293 300 304 306 307 308 310 318 316 315 322 325 334 339 339 338 340 339 343 345 346 347 346 346 346 346 345 344 342 342 341 339 337 336 336 336 336 337 338 338 337 336 336
313 310 306 299 296 297 301 304 304 303 304 311 314 311 319 325 324 332 337 338 336 337 338 340 343 344 344 344 343 343 343 343 342 339 343 342 341 340 339 337 335 335 335 336 336 336 334 334 336
312 305 300 296 297 296 303 305 304 302 303 307 312 309 313 326 332 335 336 337 334 335 337 339 342 342 342 341 341 341 341 341 341 340 342 341 341 340 338 336 335 334 334 335 332 331 332 332 333
307 304 296 294 298 296 302 305 304 303 305 313 313 313 316 331 331 331 335 333 335 335 336 337 335 337 339 339 339 339 340 339 340 341 341 340 339 341 338 336 335 334 333 331 330 329 330 332 333
304 299 296 296 298 296 302 306 304 304 303 307 318 310 316 326 332 332 332 331 332 334 333 333 335 333 333 335 335 336 337 337 336 335 333 333 337 339 339 337 335 333 332 331 329 329 330 330 330
307 303 297 297 297 297 302 303 304 304 305 315 321 311 312 325 331 332 332 330 330 330 331 330 332 332 329 328 329 331 332 332 333 333 330 329 331 333 333 332 335 333 332 331 329 329 329 329 330
310 299 297 298 297 298 304 302 303 307 308 312 317 317 320 327 330 329 328 326 326 328 329 330 330 329 329 327 324 326 328 330 328 327 325 323 323 326 328 328 332 333 332 330 329 328 327 325 324
306 298 300 306 304 301 304 302 303 305 305 309 316 321 325 326 325 324 324 324 324 323 326 330 328 328 327 330 325 324 326 324 323 323 322 322 323 324 326 324 327 329 329 330 329 328 327 322 319
307 302 307 302 303 305 304 301 302 305 301 309 312 318 322 322 322 323 322 325 324 325 326 328 328 328 328 326 324 323 322 322 322 322 322 323 323 322 321 320 320 318 319 319 321 320 319 318 317
303 308 309 308 302 303 302 303 301 304 304 308 318 322 322 322 322 323 322 323 323 324 325 326 327 328 326 327 324 323 323 321 321 321 322 320 319 319 318 318 317 315 316 316 316 316 316 315 316
308 311 310 304 303 301 302 299 301 299 300 316 322 322 321 322 323 323 324 325 323 325 326 326 325 326 325 325 324 323 322 322 322 322 323 321 318 317 317 317 316 316 317 316 315 315 315 314 315
311 312 306 303 303 303 299 298 300 300 306 319 321 320 320 321 323 321 322 323 323 325 325 328 326 325 324 322 323 324 323 324 322 322 323 322 320 318 318 317 318 318 317 317 315 316 315 315 315
311 307 301 300 301 301 301 297 299 300 309 317 319 319 319 320 321 323 324 324 324 324 325 328 328 327 324 322 323 324 323 324 323 322 323 324 323 321 320 318 317 317 316 316 316 315 315 314 315
303 305 297 302 299 299 299 293 301 302 300 309 314 316 318 319 321 323 325 325 324 323 323 327 331 329 326 325 325 324 323 322 323 323 323 323 324 323 320 318 317 317 315 316 316 316 315 314 313
302 295 297 300 300 299 299 296 304 305 301 299 300 307 317 319 320 323 325 326 325 323 324 324 328 328 327 326 326 325 324 322 321 321 322 322 322 323 321 319 319 318 317 316 316 316 315 314 314
294 297 297 299 298 297 295 298 301 301 304 303 301 300 302 314 319 323 325 327 326 323 324 325 325 328 328 327 325 324 323 323 323 321 322 322 321 321 321 320 320 318 317 316 316 316 315 315 315
300 298 298 300 300 296 295 296 300 303 299 299 302 302 302 302 313 320 325 325 325 323 322 324 323 325 327 326 324 324 323 324 324 325 322 322 321 321 322 320 319 317 317 317 317 316 314 313 313
300 298 297 297 299 297 295 295 298 300 300 301 301 301 301 302 303 309 316 322 322 321 321 323 323 324 326 327 327 326 326 325 326 326 324 322 322 322 322 321 320 318 317 316 316 315 313 314 314
299 298 299 296 295 295 293 292 295 299 300 302 303 304 303 303 303 302 310 317 320 320 321 321 323 324 325 326 326 321 321 319 320 322 324 324 322 322 322 322 322 320 319 318 317 317 315 313 316
297 302 302 296 295 288 294 285 289 294 297 299 303 300 302 302 303 304 304 311 318 320 321 322 322 323 324 325 324 323 322 320 322 323 324 324 324 323 323 323 322 322 320 319 318 318 316 312 310
298 299 298 298 294 291 287 285 288 291 292 294 297 301 303 303 303 303 303 309 315 319 320 322 322 322 323 323 325 324 322 323 323 322 321 322 323 324 323 323 323 322 321 320 318 314 313 314 311
301 296 296 294 291 287 289 288 286 289 293 294 296 297 300 301 303 305 305 304 308 313 316 319 321 321 322 323 323 323 322 322 321 319 320 321 322 323 323 323 323 323 322 320 319 318 316 315 315
299 296 284 283 283 283 286 286 291 293 295 295 296 297 298 299 299 300 301 301 303 307 313 317 320 321 322 321 322 322 322 322 321 320 320 321 321 322 323 324 323 323 323 322 320 318 317 316 315
297 297 286 281 280 281 285 284 290 296 298 296 296 296 295 295 296 297 298 298 299 302 309 315 317 321 322 323 322 322 323 323 322 322 322 322 322 323 324 324 325 324 324 322 321 319 318 317 316
296 292 294 282 275 278 282 285 291 293 294 295 296 293 293 293 293 295 295 295 295 297 300 310 313 316 318 320 323 323 323 323 322 322 323 323 323 324 324 324 324 325 324 323 322 320 318 317 316
297 297 287 285 275 274 279 280 285 289 292 294 292 293 294 294 294 294 295 295 295 294 297 301 309 312 313 314 317 321 323 324 324 324 323 323 324 325 324 324 324 324 324 324 323 322 321 318 317
292 292 290 288 283 280 276 280 289 292 295 294 293 293 294 294 293 294 294 294 295 295 296 296 296 298 300 304 309 312 315 317 321 324 325 324 325 325 324 324 325 324 323 323 322 322 321 319 318
296 294 289 288 282 282 282 282 291 294 296 294 293 294 293 293 293 293 294 294 295 295 295 296 296 297 297 297 297 298 300 304 309 315 318 320 323 326 325 325 324 324 324 323 321 321 320 318 316
Wind_Speed
8 10 1 5 5 5 1 1 1 3 4 3 3 9 8 3 1 3 1 8 12 8 6 8 11 11 12 13 12 14 14 15 17 16 17 17 17 19 19 17 16 16 16 16 17 18 16 17 16
7 6 5 2 5 4 3 1 5 2 6 8 8 4 6 3 3 7 4 9 12 10 7 6 10 11 11 12 12 13 13 14 16 16 16 15 15 19 19 17 14 16 16 16 17 16 17 17 15
8 1 4 4 3 2 4 3 6 3 3 3 5 6 3 3 5 5 11 12 11 7 8 7 10 12 13 12 12 11 12 14 16 13 14 14 18 20 19 17 15 15 15 16 15 15 16 16 16
5 5 4 5 1 2 7 6 5 5 3 7 5 6 3 3 4 6 14 13 12 7 7 9 11 11 12 11 10 12 13 14 10 12 14 19 18 19 18 17 15 15 14 15 14 13 14 15 15
4 3 4 3 3 1 3 5 6 4 4 4 2 3 2 3 12 12 13 12 14 7 6 8 10 11 10 11 13 12 13 12 10 13 13 14 16 18 17 16 15 14 13 14 13 12 12 14 14
4 3 3 1 2 2 2 5 7 4 4 5 7 5 2 9 14 8 11 9 12 11 6 7 8 9 12 12 13 12 12 10 10 11 13 13 12 15 17 15 14 13 13 12 12 11 10 13 16
3 4 4 4 3 3 6 6 8 7 7 4 10 5 3 5 10 10 10 9 9 9 7 6 6 6 10 11 11 14 12 10 8 11 12 12 12 13 15 13 12 11 11 11 11 10 9 10 13
3 3 3 3 3 5 4 4 5 6 3 5 7 7 7 7 11 11 10 9 8 7 7 6 6 5 5 6 10 11 12 9 11 10 9 11 9 11 12 10 9 10 9 9 7 7 6 7 10
1 3 3 5 6 4 5 5 1 2 7 3 2 6 6 13 12 12 9 4 5 6 8 8 8 7 5 5 6 9 9 8 10 8 6 5 4 6 6 7 8 9 8 8 6 5 4 6 7
2 4 7 5 4 6 7 6 7 5 3 3 2 4 11 13 13 13 12 10 9 8 7 9 7 9 7 4 5 5 6 4 4 5 4 3 3 4 4 5 7 6 5 5 4 2 2 4 3
4 5 4 1 3 8 8 5 3 10 3 7 9 9 11 8 8 11 9 12 11 10 8 9 8 6 8 6 3 2 2 3 4 6 5 4 3 2 2 2 2 1 2 1 1 1 0 1 1
3 6 4 1 2 3 9 7 5 5 7 8 12 16 14 13 13 12 12 10 10 10 9 10 9 8 4 4 6 5 4 4 4 5 6 4 3 4 4 3 3 3 3 3 2 1 2 3 3
2 2 4 1 1 3 7 4 5 6 2 9 13 10 13 15 13 7 7 8 7 11 9 9 10 10 8 6 3 4 5 4 5 4 6 4 4 4 3 4 4 4 3 3 3 3 3 2 2
4 4 3 3 4 2 5 2 2 6 6 9 15 14 11 14 16 7 9 12 12 11 11 10 10 11 10 7 7 5 4 5 4 4 5 7 5 4 5 4 4 4 4 3 4 4 3 3 3
3 3 2 3 4 3 4 1 6 3 7 11 11 12 11 12 9 16 16 14 13 9 9 12 12 9 13 11 9 7 6 6 6 6 7 7 6 6 6 5 5 4 4 5 4 3 2 2 1
5 4 6 4 6 3 4 7 9 7 10 10 10 10 12 15 16 15 13 13 10 10 13 11 11 10 9 11 8 6 6 5 7 6 6 8 8 7 6 5 5 5 4 4 3 3 2 2 2
5 4 7 3 9 4 6 6 10 8 9 9 10 11 13 13 12 14 16 15 14 14 13 13 12 12 10 8 6 6 6 6 5 4 6 8 8 7 6 5 5 5 4 3 3 3 3 3 4
7 5 7 8 9 6 5 7 4 4 10 14 11 10 11 13 18 18 17 17 16 13 14 14 12 13 11 5 5 3 4 4 4 6 7 9 8 9 8 6 5 5 4 4 3 5 4 3 4
9 8 12 8 5 5 11 8 11 8 4 7 9 10 12 13 17 13 16 16 15 14 15 17 14 12 10 8 7 7 9 7 5 6 9 9 8 9 8 6 6 5 6 7 6 4 5 4 2
14 12 12 3 3 7 6 13 10 7 7 8 11 10 10 8 8 8 12 14 15 17 17 16 17 15 14 10 9 8 8 8 7 6 7 9 9 10 10 8 8 8 6 6 6 5 2 3 4
8 19 11 7 4 1 3 8 7 9 6 9 13 10 9 13 12 9 11 14 14 16 18 18 18 17 15 15 8 2 2 2 4 7 9 10 10 11 12 11 9 8 7 8 7 8 8 5 3
19 7 8 6 11 6 6 7 6 9 14 9 19 10 13 12 9 9 10 11 15 17 16 17 17 17 15 16 13 15 13 12 10 9 9 9 11 12 12 11 11 10 8 9 9 7 6 4 5
6 11 8 5 6 4 4 2 7 3 7 11 15 17 17 15 13 11 11 13 14 12 14 16 15 15 15 15 16 13 15 11 7 8 8 10 8 12 12 13 12 11 9 11 10 7 8 7 5
10 10 9 5 1 10 9 9 6 7 9 6 7 11 13 11 12 11 8 7 7 8 8 8 12 15 15 16 17 17 17 13 8 7 9 8 8 9 13 14 13 13 13 13 12 12 12 12 10
9 18 4 5 5 6 7 7 12 8 9 10 11 10 11 10 9 9 10 7 7 9 9 9 12 15 14 16 16 18 17 15 15 12 10 10 9 9 14 15 15 13 15 14 13 12 14 12 11
26 19 8 9 6 4 4 11 10 14 10 9 7 6 6 8 8 8 9 8 8 9 8 10 12 15 11 14 17 15 16 11 11 13 11 10 11 11 12 13 15 16 14 14 12 10 11 12 11
12 17 11 9 3 4 6 7 10 7 9 9 10 5 7 7 8 9 7 6 5 5 8 9 8 8 7 9 10 12 13 14 13 15 11 11 12 12 12 13 15 16 16 15 14 11 13 12 13
15 10 8 1 9 6 4 6 8 7 12 13 9 11 9 7 6 6 6 6 4 4 3 5 6 8 6 5 6 7 9 11 13 12 14 16 14 12 11 13 14 14 15 16 16 14 14 14 12
9 14 7 6 5 10 5 9 10 17 17 16 12 11 10 10 9 9 7 5 5 2 2 3 3 4 4 6 6 7 8 7 7 11 12 12 12 13 13 13 15 15 16 16 16 16 16 17 16
20 20 6 13 9 4 4 8 7 16 15 10 11 11 8 9 11 9 8 7 5 4 2 3 3 5 6 5 5 7 6 6 7 7 7 7 10 11 12 13 14 15 16 16 17 18 16 16 17
Wind_Direction
321 314 84 44 52 62 36 30 133 79 61 349 31 97 121 70 49 178 320 136 126 135 146 121 120 114 113 112 107 106 106 102 103 105 106 103 100 98 94 86 85 87 86 88 96 93 80 73 71
320 327 36 77 77 62 282 312 127 130 137 121 91 90 50 64 73 113 88 144 131 136 121 119 117 113 111 117 113 110 112 111 108 109 107 109 107 100 93 94 89 86 92 94 96 89 75 63 73
314 29 69 82 107 155 182 213 151 134 94 107 93 55 97 128 108 152 129 133 116 110 119 119 112 111 112 111 117 117 122 118 110 113 117 118 108 106 103 91 88 86 90 94 91 88 74 70 85
347 0 32 81 226 231 164 186 173 136 61 66 116 68 30 248 119 140 135 136 115 115 119 115 112 113 126 126 114 90 108 98 109 123 108 99 108 108 104 98 93 90 93 95 91 87 78 77 89
29 51 45 58 283 302 103 176 163 117 102 37 116 124 55 35 126 126 135 131 120 113 117 121 121 119 116 112 99 102 102 109 122 109 105 101 104 112 111 109 102 99 99 100 94 86 81 77 86
4 85 65 208 219 98 158 183 151 114 118 164 78 98 105 133 127 138 134 119 127 127 124 123 121 123 115 108 122 103 100 112 106 98 105 103 104 119 116 112 109 105 103 102 98 99 95 84 92
133 92 202 201 226 161 187 165 150 146 138 157 141 98 146 157 148 135 127 123 126 124 121 115 121 124 125 128 124 126 120 124 133 135 135 131 122 112 113 111 113 109 108 108 109 110 104 96 96
120 106 181 240 189 229 154 129 135 126 122 108 142 159 177 162 138 123 131 132 133 135 130 131 129 126 125 136 133 134 131 148 140 133 132 143 110 108 105 105 115 119 112 107 103 101 95 79 73
112 72 205 223 164 215 177 126 125 68 108 72 14 153 179 139 133 125 124 124 135 143 148 146 145 138 138 136 143 132 140 140 126 115 123 100 77 97 110 125 125 128 127 129 127 113 86 55 34
173 151 217 217 187 184 167 140 148 103 116 45 32 1 129 138 143 146 157 168 168 166 173 158 160 151 148 149 141 128 134 126 120 129 136 115 103 114 116 128 133 135 140 138 137 117 6 13 346
187 206 228 237 232 172 162 135 159 131 209 196 184 165 149 148 142 156 171 178 183 176 172 172 161 169 155 143 137 121 125 138 145 156 156 148 135 132 127 131 115 135 167 146 106 350 114 125 146
218 225 257 223 13 173 160 131 123 183 211 183 169 166 158 171 174 175 180 179 178 178 181 172 169 162 179 156 160 169 167 174 172 177 178 159 170 170 171 179 187 192 198 195 221 211 199 187 189
250 300 234 232 139 79 112 143 172 202 157 114 132 161 179 182 188 179 178 185 170 183 187 177 169 174 166 165 173 173 183 180 184 178 188 168 177 181 172 195 193 204 204 217 214 216 206 206 203
221 231 277 240 175 67 127 131 132 227 121 135 153 176 185 191 194 172 183 194 191 183 192 181 173 180 170 169 175 184 188 197 190 193 193 183 188 179 183 194 211 217 211 202 206 204 207 218 211
153 202 298 226 200 177 128 254 218 171 152 161 177 179 191 207 191 206 196 199 195 193 187 192 187 173 180 178 183 185 193 190 194 199 186 190 191 190 193 199 207 214 203 204 203 224 217 237 259
147 176 201 227 151 221 148 242 239 182 151 193 192 189 196 209 208 209 210 204 194 187 186 193 196 190 183 179 184 187 192 192 197 195 189 194 195 192 194 197 207 204 197 192 188 185 212 239 234
197 190 202 194 199 133 178 239 240 182 186 203 210 205 206 214 218 216 209 209 201 196 189 193 193 196 193 182 176 182 194 195 198 191 201 205 198 197 193 198 209 196 195 194 189 209 186 204 229
159 199 190 205 207 183 188 246 263 184 190 217 212 216 211 215 218 212 210 208 203 195 197 191 196 196 188 177 182 174 188 197 190 207 207 203 202 194 197 204 201 185 183 202 190 199 209 214 221
166 161 195 212 197 134 202 215 236 222 221 228 231 223 218 214 227 213 212 206 201 195 191 196 189 193 183 186 193 204 212 209 213 209 210 209 208 203 199 198 195 185 195 201 196 189 198 228 193
165 193 197 226 182 168 204 239 242 245 236 207 227 231 219 217 219 212 209 201 200 195 194 193 197 187 191 195 201 209 207 220 223 220 217 213 204 203 203 200 203 194 195 201 194 176 191 222 174
184 199 197 199 105 8 106 273 221 249 236 246 247 228 232 215 212 216 208 203 198 197 196 195 198 194 192 192 183 142 143 203 188 217 221 216 207 206 206 206 200 199 200 210 200 194 190 200 186
204 157 187 151 150 201 160 270 250 216 236 220 243 229 227 227 228 213 204 203 202 205 200 200 199 197 196 188 190 199 209 215 218 221 222 217 208 212 211 210 204 204 202 208 205 199 201 165 196
187 127 146 181 173 125 199 214 265 187 236 231 230 235 227 225 220 221 211 209 208 202 201 203 197 198 198 193 198 201 214 222 219 214 211 213 208 214 214 211 206 206 204 213 206 191 198 200 167
123 93 46 39 56 223 194 185 249 198 205 247 225 227 221 210 217 231 226 219 221 203 179 191 197 201 198 198 202 203 215 219 216 214 217 215 212 209 215 212 210 210 210 208 207 208 205 206 205
146 155 132 190 206 231 159 182 239 230 240 224 232 231 218 205 198 221 232 215 213 204 199 189 193 206 198 201 204 209 211 209 214 213 215 209 211 214 219 208 210 213 214 213 210 209 213 208 209
176 174 159 167 183 195 118 223 239 219 218 214 226 243 191 185 193 207 223 223 216 220 209 202 200 213 197 202 211 213 217 218 218 218 221 223 222 224 222 214 218 221 220 219 215 216 218 216 217
179 196 165 97 349 96 205 280 298 207 229 241 242 200 192 173 182 183 181 188 195 204 219 202 197 219 205 204 210 215 218 219 222 225 221 225 225 226 219 213 213 218 218 219 217 219 219 214 213
183 155 161 216 144 218 251 274 224 221 216 232 203 203 206 200 178 180 174 182 193 189 190 197 207 215 216 208 209 217 219 222 227 227 223 224 230 225 218 215 217 220 221 222 220 223 225 218 220
157 187 180 131 172 183 159 245 202 202 216 201 201 199 187 189 184 184 179 181 184 151 157 171 195 214 234 228 225 225 231 231 229 233 237 233 232 227 222 219 220 220 220 218 220 225 227 225 226
178 188 175 185 206 233 160 259 189 207 207 174 190 199 204 186 184 188 179 175 188 208 223 235 224 227 233 240 239 245 251 249 248 246 246 241 236 234 229 221 227 228 225 220 220 223 219 221 226